This is the latest recevied weather packets stored in our database for station/object W1TG-2. If no packets are shown the sender has not sent any weather packets the latest 1 day(s).
| Time | Temp. | Humidity | Pressure | Rain* | Wind** | Luminosity | Snow |
|---|---|---|---|---|---|---|---|
| 1836274498 | 13.33° C | 68% | 1019.9 hPa | 0 mm | 0 m/s | - | - |
| 1836274467 | 13.33° C | 68% | 1020.2 hPa | 0 mm | 0 m/s | - | - |
| 1836274137 | 13.33° C | 67% | 1019.7 hPa | 0 mm | 0 m/s | - | - |
| 1836274108 | 13.33° C | 68% | 1019.9 hPa | 0 mm | 0 m/s | - | - |
| 1778052243 | 17.78° C | 71% | 1008 hPa | 0 mm | 0.45 m/s, 191° | - | - |
| 1778051884 | 17.78° C | 70% | 1007.9 hPa | 0 mm | 0.89 m/s, 190° | - | - |
| 1778051524 | 17.78° C | 70% | 1008 hPa | 0 mm | 0.45 m/s, 190° | - | - |
| 1778051163 | 17.78° C | 70% | 1007.8 hPa | 0 mm | 0.45 m/s, 190° | - | - |
| 1778050803 | 18.33° C | 69% | 1007.7 hPa | 0 mm | 0.45 m/s, 191° | - | - |
| 1778050444 | 18.33° C | 69% | 1007.7 hPa | 0 mm | 0.89 m/s, 190° | - | - |
| 1778050084 | 18.33° C | 68% | 1007.7 hPa | 0 mm | 0.45 m/s, 190° | - | - |
| 1778049723 | 18.33° C | 68% | 1007.7 hPa | 0 mm | 0.89 m/s, 192° | - | - |
| 1778049363 | 18.33° C | 68% | 1007.6 hPa | 0 mm | 0.89 m/s, 196° | - | - |
| 1778049004 | 18.33° C | 68% | 1007.5 hPa | 0 mm | 1.34 m/s, 197° | - | - |
| 1778048644 | 18.33° C | 67% | 1007.5 hPa | 0 mm | 1.34 m/s, 196° | - | - |
| 1778048283 | 18.33° C | 68% | 1007.5 hPa | 0 mm | 0.89 m/s, 194° | - | - |
| 1778047923 | 18.33° C | 68% | 1007.6 hPa | 0 mm | 0.45 m/s, 192° | - | - |
| 1778047574 | 18.33° C | 67% | 1007.7 hPa | 0 mm | 0.89 m/s, 193° | - | - |
| 1778047204 | 18.33° C | 67% | 1007.7 hPa | 0 mm | 0.89 m/s, 192° | - | - |
| 1778046843 | 18.33° C | 67% | 1007.7 hPa | 0 mm | 0.89 m/s, 192° | - | - |
| 1778046484 | 18.33° C | 67% | 1007.8 hPa | 0 mm | 0.89 m/s, 192° | - | - |
| 1778046124 | 18.33° C | 67% | 1008 hPa | 0 mm | 1.34 m/s, 193° | - | - |
| 1778045763 | 18.33° C | 67% | 1008 hPa | 0 mm | 0.89 m/s, 193° | - | - |
| 1778045403 | 18.33° C | 67% | 1008 hPa | 0 mm | 0.89 m/s, 192° | - | - |
| 1778045044 | 18.33° C | 67% | 1008.1 hPa | 0 mm | 0.89 m/s, 192° | - | - |
* Rain latest hour (hover to see other rain measurements)
** Current wind speed in m/s (hover to see current wind gust speed)